Terminal Aerodrome Forecast
Issued by NWS Quad Cities IA IL

Home | Current Version | Previous Version | Text Only | Print | Product List | Glossary On
Versions: 1 2 3 4 5 6 7 8 9 10 11 12 13 14 15 16 17 18 19 20
000
FTUS43 KDVN 171300 AAB
TAFDBQ
TAF AMD
KDBQ 171350Z 1714/1812 27018G25KT P6SM BKN009 OVC026
      TEMPO 1714/1716 SCT009 BKN015
     FM171800 30013KT P6SM SCT025 BKN150
     FM180100 VRB04KT P6SM SCT250=

USA.gov is the U.S. government's official web portal to all federal, state and local government web resources and services.